SALSAT
1 46495U 20068K   25232.87941033  .00006745  00000-0  28427-3 0  9991
2 46495  97.8660 214.3176 0009090 270.5671  89.4523 15.23653873269535
TUBIN
1 48900U 21059X   25234.57944220  .00051212  00000-0  48117-3 0  9992
2 48900  97.6768  50.1881 0002212 309.9799  50.1266 15.67005145231608
LEDSAT
1 49069U 21073D   25233.80065967  .00107698  00000-0  80159-3 0  9994
2 49069  97.3830 318.9395 0008229 173.9806 186.1558 15.72432203222899
CUTE
1 49263U 21088D   25234.15710035  .00013878  00000-0  24862-3 0  9993
2 49263  97.4479 312.6936 0005387 336.3615  23.7388 15.50060144215810
TeikyoSat 4
1 49396U 21102B   25234.54796281  .00001172  00000-0  80235-4 0  9998
2 49396  97.4059 270.2998 0011051 235.4220 124.5966 15.07909206207696
Z-Sat
1 49399U 21102E   25232.89178036  .00003323  00000-0  18121-3 0  9993
2 49399  97.3758 272.2573 0017149 208.0560 151.9750 15.14931336207920
KOSEN 1
1 49402U 21102H   25234.56526173  .00004978  00000-0  22591-3 0  9996
2 49402  97.3653 277.8688 0015940 173.8915 186.2519 15.21145529208538
HO-113
1 50466U 21131B   25234.57939788  .00000365  00000-0  12754-3 0  9997
2 50466  98.5092 323.5698 0002985 273.7243  86.3604 14.40886812192106
SNUGLITE 2
1 52899U 22065F   25234.34060276  .00000921  00000-0  18742-3 0  9999
2 52899  98.1786  15.6413 0006562 236.7143 123.3431 14.63362143167272
UmKA 1 (RS40S)
1 57172U 23091G   25232.89699830  .00005919  00000-0  31018-3 0  9993
2 57172  97.5531 287.9124 0015720  86.2012 274.1017 15.16064444118435
CubeBel-2 (EU11S)
1 57175U 23091K   25232.85934043  .00008718  00000-0  40127-3 0  9991
2 57175  97.5530 289.4834 0013381  92.3473 267.9294 15.20482790118533
ENSO
1 58470U 23185J   25234.60717469  .00070520  00000-0  72558-3 0  9993
2 58470  97.3672 312.5116 0006923 170.2844 189.8551 15.64621036 96573
EIRSAT-1
1 58472U 23185L   25234.60750749  .00438128  79289-4  11127-2 0  9998
2 58472  97.3563 316.3869 0007926 228.9479 131.1113 15.95399596 96830
SONATE-2
1 59112U 24043Q   25232.90089804  .00017260  00000-0  46418-3 0  9995
2 59112  97.5211   5.6725 0010225 211.0792 148.9848 15.37904748 81449
MO-122
1 60209U 24125G   25234.52123240  .00015075  00000-0  39730-3 0  9999
2 60209  97.2715  85.4026 0016548 227.1338 132.8518 15.38464973 63316
GRBBeta
1 60237U 24128C   25232.85856724  .00004342  00000-0  32441-3 0  9994
2 60237  61.9902 187.4423 0056217  72.9920 287.7320 15.03160833 61068
Curium One
1 60242U 24128H   25232.56808140  .00008174  00000-0  55208-3 0  9990
2 60242  61.9800 185.6245 0056343  69.4877 291.2250 15.06020975 61073
ROBUSTA-3A
1 60243U 24128J   25233.98865012  .00006924  00000-0  47704-3 0  9992
2 60243  61.9876 181.7251 0055471  67.3871 293.3076 15.05513543 61271
CatSat
1 60246U 24125J   25234.02035717  .00014890  00000-0  47014-3 0  9994
2 60246  97.2526  83.2541 0040801 189.9977 170.0459 15.32101127 61227
HYPERVIEW-1G (RS66S)
1 61772U 24199AP  25232.88758517  .00019639  00000-0  52263-3 0  9990
2 61772  97.3428 101.6880 0010662 296.0730  63.9417 15.38193396 88064
AO-123
1 61781U 24199AY  25232.84152429  .00006407  00000-0  22804-3 0  9993
2 61781  97.3449  99.6745 0013905 305.4598  54.5343 15.29215246 87920
ZIMSAT 2
1 61783U 24199BA  25232.84167609  .00038245  00000-0  78843-3 0  9990
2 61783  97.3393 102.9123 0009246 288.3704  71.6539 15.45757997 91293
HADES-R (SO-124)
1 62690U 25009CK  25234.18425672  .00036692  00000-0  11120-2 0  9993
2 62690  97.4062 314.9294 0003784 182.1596 177.9631 15.34045068 33410
HYDRA-T
1 62692U 25009CM  25233.69801587  .00035845  00000-0  10741-2 0  9990
2 62692  97.4076 314.5107 0003803 177.8281 182.2979 15.34407661 33347
JINJUSat 1B
1 63210U 25052A   25233.67088734  .00009137  00000-0  40207-3 0  9990
2 63210  97.4318 126.9003 0006230  76.3129 283.8800 15.22066740 24363
NUSHSAT 1
1 63211U 25052B   25234.17707465  .00011018  00000-0  47840-3 0  9997
2 63211  97.4304 127.4250 0006296  78.6023 281.5920 15.22470927 24442
TEVEL2-4
1 63213U 25052D   25233.68061516  .00009345  00000-0  41087-3 0  9991
2 63213  97.4222 126.6950 0005595  92.0989 268.0887 15.22090898 24361
TEVEL2-5
1 63214U 25052E   25233.68239509  .00009217  00000-0  40569-3 0  9993
2 63214  97.4223 126.6932 0005588  92.0483 268.1393 15.22058167 24360
TEVEL2-6
1 63215U 25052F   25234.27814827  .00009628  00000-0  42396-3 0  9998
2 63215  97.4222 127.2742 0005656  91.3258 268.8626 15.22030660 24458
TEVEL2-1
1 63217U 25052H   25233.64268831  .00010014  00000-0  44409-3 0  9996
2 63217  97.4200 126.5444 0005749 100.8905 259.2978 15.21777193 24356
TEVEL2-3
1 63218U 25052J   25234.16889916  .00009740  00000-0  43182-3 0  9999
2 63218  97.4203 127.0649 0005873 100.6201 259.5697 15.21792940 24435
TEVEL2-2
1 63219U 25052K   25234.49814594  .00009038  00000-0  40104-3 0  9997
2 63219  97.4200 127.3877 0005817  99.4881 260.7012 15.21788056 24489
TEVEL2-9
1 63237U 25052AD  25234.16276024  .00009227  00000-0  42449-3 0  9995
2 63237  97.4264 126.9016 0009978 112.8740 247.3550 15.20510921 24419
TEVEL2-7
1 63238U 25052AE  25234.16841889  .00009262  00000-0  42707-3 0  9999
2 63238  97.4262 126.8975 0010055 112.8386 247.3913 15.20431978 24412
TEVEL2-8
1 63239U 25052AF  25234.17194724  .00009328  00000-0  43048-3 0  9992
2 63239  97.4264 126.8912 0010079 113.3616 246.8681 15.20400409 24415
HYDRA-W
1 63490U 25052BL  25234.50034759  .00023673  00000-0  89835-3 0  9992
2 63490  97.4206 128.0188 0013905 109.2392 251.0352 15.26755245 24527
HADES-ICM (SO-125)
1 63492U 25052BN  25234.47538572  .00023892  00000-0  92466-3 0  9999
2 63492  97.4211 127.9123 0013925 112.6772 247.5940 15.26100850 24512
